Terminal Aerodrome Forecast
Issued by NWS Miami, FL

Home | Current Version | Previous Version | Text Only | Print | Product List | Glossary On
Versions: 1 2 3 4 5 6 7 8 9 10 11 12 13 14 15 16 17 18 19 20 21 22 23 24 25 26 27 28 29 30 31 32 33 34 35 36 37 38 39 40 41 42 43 44 45 46 47 48 49 50
383
FTUS42 KMFL 110835 AAA
TAFAPF
TAF AMD
KAPF 110835Z 1109/1206 05010KT P6SM OVC070
     FM111600 08014G24KT P6SM SCT025 BKN120
     FM120100 10006KT P6SM SCT150=

USA.gov is the U.S. government's official web portal to all federal, state and local government web resources and services.